Content
SEND FEEDBACK

Daily
Averages
Monthly
Summary
United Kingdom

ASTON, ENGLAND


Home > Europe > United Kingdom > England
Elevation: 364 feet     Latitude: 52 30N     Longitude: 001 54W

WEATHER
 
SELECT A DAY
Number of Records: 280,284;   Date Range: 7/1/96 - 7/23/14
 
SHARE

PRINT THIS DATA

[ ← Previous Day ]
WEATHER ALMANAC - FEBRUARY 13, 2013
[ Next Day → ]
[ °C ]   °F
Weather ElementAverageHighLow
Temperature32.5 °F37.4 °F (11:50 pm)30.2 °F (4:50 am)
Dewpoint30.6 °F37.4 °F (11:50 pm)26.6 °F (4:20 am)
Humidity92.5 %100 % (11:50 am)80 % (4:20 am)
Barometer30.04 in30.12 in (12:50 am)29.83 in (11:50 pm)
Wind Speed12.8 mph19.6 mph (4:50 pm)
Wind Gust27.6 mph (4:20 pm)
Weather ElementAverage
Visibility3 mi
Wind DirectionSSE (153.7 °)

Weather ElementTotal
Precipitation---
Heating Degree Days31.2 (Base 65)
Averaged from 46 records on February 13, 2013
WEATHER CONDITIONS BREAKOUT
WIND DIRECTION BREAKOUT
WEATHER BY HOUR - FEBRUARY 13, 2013
[ °C ]   °F
Local TimeTemperatureDewpointHumidityBarometerVisibilityWind DirectionWind SpeedGust SpeedPrecipitationEventsConditions
12:50 AM32.0 °F28.4 °F87 %30.12 in3.7 miSouth (170°)4.6 mphOvercast
1:20 AM32.0 °F28.4 °F87 %30.12 in3.7 miSE (130°)5.8 mphOvercast
1:50 AM32.0 °F28.4 °F87 %30.12 in3.1 miSE (130°)6.9 mphOvercast
2:20 AM32.0 °F28.4 °F87 %30.12 inSE (140°)6.9 mphHaze
2:50 AM32.0 °F28.4 °F87 %30.12 inSE (140°)6.9 mphHaze
3:50 AM32.0 °F28.4 °F87 %30.12 in3.1 miSE (130°)5.8 mphOvercast
4:20 AM32.0 °F26.6 °F80 %30.09 in5.0 miSE (140°)9.2 mphOvercast
4:50 AM30.2 °F26.6 °F86 %30.12 in5.6 miSSE (160°)6.9 mphMostly Cloudy
5:20 AM30.2 °F26.6 °F86 %30.12 in6.2 miSE (140°)6.9 mphMostly Cloudy
5:50 AM30.2 °F26.6 °F86 %30.12 in6.2 miSSE (150°)6.9 mphMostly Cloudy
6:20 AM30.2 °F26.6 °F86 %30.12 in6.2 miSSE (150°)6.9 mphMostly Cloudy
6:50 AM30.2 °F26.6 °F86 %30.09 in6.2 miSE (140°)8.1 mphMostly Cloudy
7:20 AM30.2 °F26.6 °F86 %30.12 in6.2 miSSE (150°)8.1 mphPartly Cloudy
7:50 AM32.0 °F26.6 °F80 %30.12 in5.6 miSE (140°)8.1 mphScattered Clouds
8:20 AM32.0 °F28.4 °F87 %30.12 in4.3 miSSE (150°)8.1 mphMostly Cloudy
8:50 AM32.0 °F28.4 °F87 %30.12 in4.3 miSE (140°)10.4 mphScattered Clouds
9:20 AM32.0 °F28.4 °F87 %30.12 in3.7 miSSE (150°)12.7 mphScattered Clouds
9:50 AM32.0 °F28.4 °F87 %30.12 in4.3 miSSE (150°)12.7 mphScattered Clouds
10:20 AM32.0 °F28.4 °F87 %30.12 in3.7 miSSE (160°)11.5 mphMostly Cloudy
10:50 AM32.0 °F28.4 °F87 %30.12 in3.7 miSSE (160°)11.5 mphMostly Cloudy
11:20 AM32.0 °F30.2 °F93 %30.12 in3.1 miSSE (160°)12.7 mphSnowLight Snow
11:50 AM32.0 °F32.0 °F100 %30.09 in1.5 miSSE (150°)12.7 mphSnowLight Snow
12:20 PM33.8 °F32.0 °F93 %30.09 in1.7 miSSE (150°)12.7 mphSnowLight Snow
12:50 PM32.0 °F32.0 °F100 %30.06 in0.9 miSSE (150°)12.7 mphSnowSnow
1:20 PM32.0 °F32.0 °F100 %30.06 in0.7 miSSE (160°)13.8 mphSnowSnow
1:50 PM32.0 °F32.0 °F100 %30.06 in0.9 miSSE (150°)13.8 mphSnowLight Snow
2:20 PM32.0 °F32.0 °F100 %30.06 in0.6 miSSE (150°)13.8 mphSnowLight Snow
2:50 PM32.0 °F32.0 °F100 %30.04 in0.9 miSSE (160°)15.0 mphSnowLight Snow
3:20 PM32.0 °F32.0 °F100 %30.04 in0.9 miSSE (160°)17.3 mphSnowLight Snow
3:50 PM32.0 °F32.0 °F100 %30.04 in0.9 miSSE (150°)17.3 mphRain-SnowLight Rain
4:20 PM32.0 °F32.0 °F100 %30.01 in1.2 miSSE (160°)16.1 mph27.6 mphRainLight Rain
4:50 PM32.0 °F32.0 °F100 %30.01 in1.4 miSSE (160°)19.6 mphRainLight Rain
5:20 PM33.8 °F32.0 °F93 %29.98 in1.3 miSSE (160°)18.4 mphLight Drizzle
5:50 PM33.8 °F32.0 °F93 %29.98 in1.2 miSSE (160°)17.3 mphLight Drizzle
6:20 PM33.8 °F32.0 °F93 %29.98 in1.7 miSSE (160°)18.4 mphLight Drizzle
6:50 PM33.8 °F32.0 °F93 %29.98 in1.7 miSSE (160°)16.1 mphLight Drizzle
7:20 PM33.8 °F32.0 °F93 %29.95 in1.5 miSouth (170°)19.6 mphLight Drizzle
7:50 PM33.8 °F32.0 °F93 %29.95 in1.9 miSouth (170°)18.4 mphRainLight Rain
8:20 PM33.8 °F33.8 °F100 %29.95 inSouth (170°)17.3 mphOvercast
8:50 PM33.8 °F33.8 °F100 %29.92 inSouth (170°)18.4 mphOvercast
9:20 PM33.8 °F33.8 °F100 %29.92 inSSE (160°)18.4 mphOvercast
9:50 PM33.8 °F33.8 °F100 %29.89 in2.5 miSSE (160°)18.4 mphLight Drizzle
10:20 PM35.6 °F33.8 °F93 %29.89 in3.1 miSSE (160°)17.3 mphScattered Clouds
10:50 PM35.6 °F35.6 °F100 %29.86 in3.7 miSSE (160°)16.1 mphScattered Clouds
11:20 PM35.6 °F35.6 °F100 %29.86 in3.1 miSSE (160°)16.1 mphRainLight Rain
11:50 PM37.4 °F37.4 °F100 %29.83 in3.7 miSouth (170°)17.3 mphRainLight Rain
Hourly data recorded from EGBB, located miles away from Aston, England







STORIES FROM OUR PARTNERS